Terminal Aerodrome Forecast
Issued by NWS Wilmington, OH

Current Version | Previous Version | Graphics & Text | Print | Product List | Glossary On
Versions: 1 2 3 4 5 6 7 8 9 10 11 12 13 14 15 16 17 18 19 20 21 22 23
000
FTUS41 KILN 211000 AAB
TAFILN
TAF AMD
KILN 211044Z 2111/2206 32009KT P6SM BKN025 OVC060
     FM211200 31009KT P6SM BKN060
     FM211500 32011G19KT P6SM OVC025
     FM212200 34010KT P6SM OVC025=

USA.gov is the U.S. government's official web portal to all federal, state and local government web resources and services.